Regional Weather Roundup
Issued by NWS

Home | Current Version | Previous Version | Graphics & Text | Print | Product List | Glossary On
Versions: 1 2 3 4 5 6 7 8 9 10 11 12 13 14 15 16 17 18 19 20 21 22 23 24 25 26 27 28 29 30 31 32 33 34 35 36 37 38 39 40 41 42 43 44 45 46 47 48 49 50
000
ASUS45 KTFX 021010
RWRMT
MONTANA REGIONAL WEATHER ROUNDUP
NATIONAL WEATHER SERVICE GREAT FALLS MT
400 AM MDT SUN AUG 02 2015

NOTE: "FAIR" INDICATES FEW OR NO CLOUDS BELOW 12000 FEET WITH NO
SIGNIFICANT WEATHER AND/OR OBSTRUCTIONS TO VISIBILITY.

MTZ001>007-043-021100-
WEST OF THE DIVIDE

CITY           SKY/WX    TMP DP  RH WIND       PRES   REMARKS
KALISPELL      MOSUNNY   51  34  52 CALM      29.95R
MISSOULA       PTCLDY    61  40  45 E3        30.01R
BUTTE          CLEAR     51  35  54 CALM      30.16R
MULLAN PASS    PTCLDY    69  13  11 VRB6      30.16S HAZE
DEER LODGE       N/A     52  37  58 CALM      30.13S
EUREKA           N/A     54  32  43 CALM      29.96R
HAMILTON         N/A     59  39  47 SE2       30.02R
LIBBY            N/A     52  30  43 CALM      29.96R
PLAINS           N/A     53  37  54 CALM      29.97R
RONAN            N/A     52  39  61 CALM      30.01S
THOMPSON FALLS   N/A     52  29  41 CALM      30.00S
$$

MTZ008-052>055-021100-
SOUTHWEST MONTANA

CITY           SKY/WX    TMP DP  RH WIND       PRES   REMARKS
BOZEMAN        CLEAR     50  44  80 SE6       30.08R
DILLON         CLEAR     54  37  52 S8        30.11S
W YELLOWSTONE  PTCLDY    41  37  87 CALM      30.24R
THREE FORKS      N/A     51  51 100 CALM      30.06R
TWIN BRIDGES     N/A     54  38  54 E3        30.09R
$$

MTZ009-010-012-014-046-048-049-054-021100-
EAST SLOPES AND CENTRAL MONTANA

CITY           SKY/WX    TMP DP  RH WIND       PRES   REMARKS
CUT BANK       CLEAR     56  49  77 N14       30.07R
GREAT FALLS    CLEAR     54  39  57 SW8       30.00R
MALMSTROM AFB  CLEAR     55  40  57 W2        29.99R
HELENA         CLEAR     64  35  34 CALM      30.03R
CONRAD           N/A     59  54  83 W9        30.07R
$$

MTZ011-013-016-021-045-047-050-051-021100-
NORTH CENTRAL MONTANA

CITY           SKY/WX    TMP DP  RH WIND       PRES   REMARKS
HAVRE          CLEAR     61  55  81 E15       29.99R
LEWISTOWN      CLEAR     57  45  64 E5        30.01R
CHINOOK          N/A     59  55  88 CALM      30.01R
FORT BENTON      N/A     64  54  68 N6        29.98R
$$

MTZ017>020-022>027-061-062-021100-
NORTHEAST MONTANA

CITY           SKY/WX    TMP DP  RH WIND       PRES   REMARKS
GLASGOW        CLEAR     59  51  75 CALM      29.97R
JORDAN           N/A     58  52  80 NE8       29.97R
SIDNEY         CLEAR     59  50  72 NW8       29.93R
WOLF POINT     CLEAR     55  51  86 SW3       29.96R
MALTA            N/A     61  51  69 CALM      29.97R
PLENTYWOOD       N/A     57  54  88 W3        29.96R
POPLAR           N/A     57  54  88 CALM      29.96R
SCOBEY           N/A     51  46  83 N1        29.96R
$$

MTZ028>42-056>058-021100-
SOUTHCENTRAL AND SOUTHEAST MONTANA

CITY           SKY/WX    TMP DP  RH WIND       PRES   REMARKS
BAKER          CLEAR     62  52  69 CALM      29.95R
BILLINGS       PTCLDY    68  35  29 NW6       29.96R
LIVINGSTON     CLEAR     53  42  66 NW7       30.06S
MILES CITY     CLEAR     66  53  63 NE9       29.94R
EKALAKA          N/A     65  46  50 NE7       29.95R
FORSYTH          N/A     61  46  59 NE5       29.93R
LAUREL           N/A     64  36  35 CALM      29.95R
ROUNDUP          N/A     61  37  40 N3        29.90R
$$

REGIONAL REPORTS...DAKOTAS

CITY           SKY/WX    TMP DP  RH WIND       PRES   REMARKS
WILLISTON      CLEAR     55  51  86 CALM      29.93R
MINOT          CLEAR     59  55  87 NW10      29.84R
DICKINSON      CLEAR     55  50  83 NW6       29.90R
CROSBY         FAIR      54  54 100 W6        29.92R
BISMARCK       CLEAR     65  53  65 VRB3      29.82R
GRAND FORKS    LGT RAIN  64  60  87 W3        29.65R
FARGO          CLEAR     67  64  90 NE6       29.61F
BUFFALO SD       N/A     64  49  57 N8        29.87R
RAPID CITY     CLEAR     68  54  60 NW7       29.90S
$$

REGIONAL REPORTS...WYOMING/IDAHO/WASHINGTON

CITY           SKY/WX    TMP DP  RH WIND       PRES   REMARKS
GILLETTE       PTCLDY    70  38  31 W6        29.98F
SHERIDAN       PTCLDY    65  38  36 CALM      29.96S
BUFFALO WY     PTCLDY    70  31  23 NW5       30.04F
CODY           PTCLDY    70  30  23 SW8       30.06R
YELLOWSTONE LA   N/A     42  35  76 CALM      30.34R
IDAHO FALLS    PTCLDY    50  44  80 NW7       30.06R
SALMON         PTCLDY    54  43  66 S3        30.06R
BOISE          MOCLDY    74  39  28 S5        29.88R
SPOKANE        PTCLDY    72  22  15 S8        29.90S
$$

REGIONAL REPORTS...ALBERTA

CITY           SKY/WX    TMP DP  RH WIND       PRES   REMARKS
EDMONTON       CLEAR     48  46  93 E3        30.02R
CALGARY        MOCLDY    61  54  77 S7        30.10S
LETHBRIDGE     MOCLDY    59  50  72 NE7       30.08R
MEDICINE HAT   CLOUDY    63  54  72 E7        30.04R
WATERTON GATE    N/A     50  46  87 E1          N/A
CARDSTON         N/A     54  48  82 W2          N/A
MILK RIVER       N/A     57  50  77 NE9         N/A
ONEFOUR          N/A     59  50  72 NE13        N/A
$$

REGIONAL REPORTS...SASKATCHEWAN

CITY           SKY/WX    TMP DP  RH WIND       PRES   REMARKS
SWIFT CURRENT  CLEAR     55  52  88 NW10      30.03R
REGINA         CLEAR     54  54 100 NW10      29.94R
SASKATOON      PTCLDY    50  50 100 NW7       30.00R
CYPRESS HILLS    N/A     55  45  67 NE5         N/A
VAL MARIE        N/A     52  50  93 NW2         N/A
ROCKGLEN         N/A     57  52  82 NW8         N/A
ASSINIBOIA       N/A     48  48 100 S1          N/A
$$



USA.gov is the U.S. government's official web portal to all federal, state and local government web resources and services.